Location: Nelson
(41.2830°S, 173.2830°E)
Time: 19:10:27
(UTC+13:00)

Cosmos 1606 - Pass Details

Date: 24 January 2019
Orbit: 506 x 528 km, 82.5° (Epoch: 19 February)

Event Time Altitude Azimuth Distance (km) Brightness Sun altitude
Exits shadow 23:25:31 70° 322° (NW) 574 2.7 -22.1°
Maximum altitude 23:25:53 80° 262° (W) 552 2.7 -22.1°
Drops below altitude 10° 23:29:52 10° 174° (S) 1,809 6.1 -22.5°
Sets 23:32:03 0° 173° (S) 2,705 7.1 -22.7°
